Find Local Weather

World > North America > United States > Ohio

Millbury, Ohio Regional Weather

Lat: 41.56N, Lon: 83.43W
Wx Zone: OHZ006
Feedback
Expires:201808190200;;280222
ASUS41 KCLE 190112
RWRCLE
OHIO REGIONAL WEATHER ROUNDUP
NATIONAL WEATHER SERVICE WILMINGTON, OH
900 PM EDT SAT AUG 18 2018

NOTE: "FAIR" INDICATES FEW OR NO CLOUDS BELOW 12,000 FEET WITH NO
SIGNIFICANT WEATHER AND/OR OBSTRUCTIONS TO VISIBILITY.


OHZ001>008-015>018-024>027-034-035-043-044-190200-
   NORTHWEST OHIO
  
CITY           SKY/WX    TMP DP  RH WIND       PRES   REMARKS
DEFIANCE       FAIR      73  70  90 E5        29.95R                  
FINDLAY        FAIR      75  67  76 NE7       29.95R                  
TOLEDO EXPRESS LGT RAIN  74  69  85 CALM      29.95R                  
TOLEDO EXEC    MOCLDY    73  68  84 E6        29.96R                  
LIMA           FAIR      72  67  84 NE3       29.96R                  
$$
 

SKY/WX - Weather  TMP - Temperature  DP - Dewpoint  RH - Relative Humidity
WIND - Wind Direction/Speed PRES - Barometric Pressure